sat.trackr.live / text

‹ back to catalog

STARLINK-4165

NORAD 53286 · 2022-086AW

PAYLOAD ACTIVE UNKNOWN

§ Identity

Operator
Country
US
Launch date
2022-07-24
Launch site
AFETR
Launch vehicle
Mass (kg)
RCS (m²)

Purposes: comms

External: N2YO · Heavens-Above · Gunter

§ Orbital elements

Epoch: 2026-09-19T23:31:24.309408Z

Period
94.01 min
Inclination
53.1612°
Eccentricity
0.0001207
Mean motion
15.31687601 rev/d
Perigee alt
470.0 km
Apogee alt
471.6 km
Semi-major
6,848.9 km
B*
9.4448e-5
RAAN
18.2824°
Arg perigee
86.3109°
Mean anomaly
273.8030°
Rev number
23,070

§ Raw data

STARLINK-41651 53286U 22086AW  26262.98014247  .00002566  00000+0  94448-4 0  99962 53286  53.1612  18.2824 0001207  86.3109 273.8030 15.31687601230709

JSON: /api/v1/satellites/53286 · /tle

For live sub-satellite position, see the globe view (requires WebGL).

§ Visibility from observer

Set your observer location to see the next 7 days of passes ≥ 10°. The values pass through the URL so the page stays shareable.

No JS? Fill the form by hand. The geolocation button needs JavaScript.